Overview Statistics Trail Chart Weather Telemetry Raw packets
 

This is the latest recevied weather packets stored in our database for station/object IZ7EXI-13. If no packets are shown the sender has not sent any weather packets the latest 10 day(s).

<< 6 7 8 9 10 11 12 >>
Time Temp. Humidity Pressure Rain* Wind** Luminosity Snow
1788522842 32.78° C 49% 1020.8 hPa - - - -
1788522816 32.78° C 49% 1020.8 hPa - - - -
1788521949 32.78° C 47% 1020.9 hPa - - - -
1788521916 32.78° C 47% 1020.9 hPa - - - -
1788521015 33.89° C 46% 1021 hPa - - - -
1788520115 33.89° C 44% 1021.1 hPa - - - -
1788519215 33.89° C 44% 1021 hPa - - - -
1788518347 33.33° C 44% 1021 hPa - - - -
1788518315 33.33° C 44% 1021 hPa - - - -
1788517441 32.78° C 45% 1021.1 hPa - - - -
1788517415 32.78° C 45% 1021.1 hPa - - - -
1788516541 32.78° C 45% 1021.2 hPa - - - -
1788516514 32.78° C 45% 1021.2 hPa - - - -
1788515640 32.22° C 45% 1021.3 hPa - - - -
1788515614 32.22° C 45% 1021.3 hPa - - - -
1788514749 31.67° C 46% 1021.3 hPa - - - -
1788514713 31.67° C 46% 1021.3 hPa - - - -
1788513813 31.67° C 45% 1021.3 hPa - - - -
1788512912 31.11° C 46% 1021.2 hPa - - - -
1788512012 31.67° C 45% 1021.3 hPa - - - -
1788511112 31.67° C 46% 1021.3 hPa - - - -
1788510212 30.56° C 47% 1021.4 hPa - - - -
1788509312 30° C 48% 1021.2 hPa - - - -
1788508411 29.44° C 50% 1021.1 hPa - - - -
1788507542 28.89° C 50% 1020.9 hPa - - - -

* Rain since midnight (hover to see other rain measurements)
** Current wind speed in m/s (hover to see current wind gust speed)